Provincetown, Massachusetts, United States (02657)
Lat: 42.06N, Lon: 70.18W
Wx Zone: MAZ022
Local Info
Past Weather Observations for Today

NOTE: This archive is for the closest National Weather Service station to Provincetown. Information may differ from the station used for current weather conditions.

Click here for Long-term Archive

Time Weather Temperature Dewpoint Humidity Pressure Winds Precip Visibility
08:35
Clear
73°F / 23°C 72°F / 22°C 94% 29.95 in
(1014 mb)
SW 16.1 mph
(SW 26 kph)
- 10SM
08:15
Clear
73°F / 23°C 72°F / 22°C 94% 29.95 in
(1014 mb)
SW 13.8 mph
(SW 22 kph)
- 10SM
07:55
Clear
73°F / 23°C 70°F / 21°C 89% 29.95 in
(1014 mb)
SW 13.8 mph
(SW 22 kph)
- 10SM
07:35
Clear
73°F / 23°C 70°F / 21°C 89% 29.95 in
(1014 mb)
SW 8.1 mph
(SW 13 kph)
- 10SM
07:15
Clear
73°F / 23°C 64°F / 18°C 74% 29.95 in
(1014 mb)
SW 13.8 mph
(SW 22 kph)
- 10SM
06:55
Clear
N/A N/A N/A 29.95 in
(1014 mb)
SSE 13.8 mph
(SSE 22 kph)
- 10SM
06:35
Clear
72°F / 22°C 66°F / 19°C 83% 29.95 in
(1014 mb)
SSE 12.7 mph
(SSE 20 kph)
- 10SM
06:15
Clear
70°F / 21°C 66°F / 19°C 88% 29.95 in
(1014 mb)
SSE 11.5 mph
(SSE 19 kph)
- 10SM
05:55
Clear
70°F / 21°C 66°F / 19°C 88% 29.95 in
(1014 mb)
SSE 10.4 mph
(SSE 17 kph)
- 10SM
05:35
Clear
70°F / 21°C 64°F / 18°C 83% 29.95 in
(1014 mb)
SSE 11.5 mph
(SSE 19 kph)
- 10SM
05:15
Clear
70°F / 21°C 64°F / 18°C 83% 29.98 in
(1015 mb)
SSE 10.4 mph
(SSE 17 kph)
- 10SM
04:55
Clear
68°F / 20°C 64°F / 18°C 88% 29.98 in
(1015 mb)
SSE 11.5 mph
(SSE 19 kph)
- 10SM
04:35
Clear
68°F / 20°C 64°F / 18°C 88% 29.98 in
(1015 mb)
SSE 11.5 mph
(SSE 19 kph)
- 10SM
04:15
Clear
68°F / 20°C 64°F / 18°C 88% 29.98 in
(1015 mb)
SSE 10.4 mph
(SSE 17 kph)
- 10SM
03:55
Clear
68°F / 20°C 63°F / 17°C 83% 29.98 in
(1015 mb)
SSE 12.7 mph
(SSE 20 kph)
- 10SM
03:35
Clear
68°F / 20°C 63°F / 17°C 83% 29.98 in
(1015 mb)
SW 10.4 mph
(SW 17 kph)
- 10SM
03:15
Clear
70°F / 21°C 63°F / 17°C 78% 29.98 in
(1015 mb)
SW 9.2 mph
(SW 15 kph)
- 10SM
02:55
Clear
68°F / 20°C 63°F / 17°C 83% 29.98 in
(1015 mb)
SW 10.4 mph
(SW 17 kph)
- 10SM
02:35
Clear
68°F / 20°C 64°F / 18°C 88% 29.98 in
(1015 mb)
SW 11.5 mph
(SW 19 kph)
- 10SM
02:15
Clear
70°F / 21°C 64°F / 18°C 83% 29.98 in
(1015 mb)
SSE 10.4 mph
(SSE 17 kph)
- 10SM
01:55
Clear
70°F / 21°C 64°F / 18°C 83% 29.98 in
(1015 mb)
SW 9.2 mph
(SW 15 kph)
- 10SM
01:35
Clear
70°F / 21°C 64°F / 18°C 83% 29.98 in
(1015 mb)
SW 9.2 mph
(SW 15 kph)
- 10SM
01:15
Clear
70°F / 21°C 64°F / 18°C 83% 30.01 in
(1016 mb)
SW 10.4 mph
(SW 17 kph)
- 10SM
00:55
Clear
70°F / 21°C 64°F / 18°C 83% 30.01 in
(1016 mb)
SW 9.2 mph
(SW 15 kph)
- 10SM
00:35
Clear
70°F / 21°C 64°F / 18°C 83% 30.01 in
(1016 mb)
SW 9.2 mph
(SW 15 kph)
- 10SM
00:15
Clear
70°F / 21°C 64°F / 18°C 83% 30.01 in
(1016 mb)
SSE 10.4 mph
(SSE 17 kph)
- 10SM
Time Weather Temperature Dewpoint Humidity Pressure Winds Precip Visibility


Weather for websites

WeatherForYou.com, LLC is not responsible for any damages or problems caused by this service. Current weather conditions are obtained from the closest station including government and personal stations which may have varying degrees of accuracy. Weather forecasts are derived from the NOAA NDFD. Like all things, this site belongs to Jesus Christ... He just trusts me to maintain it. If you have any questions or comments email webmaster@weatherforyou.com

Copyright © 2014, WeatherForYou.com LLC. All rights reserved.